Regional Weather Roundup
Issued by NWS Charleston, SC

Current Version | Previous Version | Text Only | Print | Product List | Glossary Off
Versions: 1 2 3 4 5 6 7 8 9 10 11 12 13 14 15 16 17 18 19 20 21 22 23 24 25 26 27 28 29 30 31 32 33 34 35 36 37 38 39 40 41 42 43 44 45 46 47 48 49 50
000 ASUS42 KCHS 261427 RWRCHS Regional Weather Roundup National Weather Service Charleston SC 1000 AM EDT SAT MAY 26 2018 NOTE: "fair" indicates few or no clouds below 12,000 feet with no significant weather and/or obstructions to visibility. Not all stations are quality controlled. Use data with caution, especially dewpoint observations. SCZ027-030-031-034>040-042>050-261500- ...Southeast South Carolina... CITY SKY/WX TMP DP RH WIND PRES REMARKS N Charleston FAIR 83 72 69 S12 30.02S Waterfront Prk N/A 79 74 85 S8 29.86S Mount Pleasant FAIR 81 73 78 S13 30.02F Johns Island PTSUNNY 81 73 78 S9 30.03S Pinopolis N/A 81 73 78 SW7 29.95R Moncks Corner CLOUDY 81 70 69 S9 30.02S Summerville FAIR 81 72 74 S5 30.03S Beaufort MCAS FAIR 82 73 74 S5 30.02R Beaufort Arpt FAIR 81 70 69 S9 30.02S Hilton Head Is MOSUNNY 79 70 73 S6 30.03R Walterboro PTSUNNY 79 70 73 SW5 30.02F Allendale PTSUNNY 79 72 78 CALM 30.00F ...Southern Midlands and Pee Dee... CITY SKY/WX TMP DP RH WIND PRES REMARKS Georgetown PTSUNNY 81 73 78 S12 30.03S Kingstree PTSUNNY 81 73 78 SW6 30.01S Orangeburg CLOUDY 77 70 79 SW7 30.01S Barnwell CLOUDY 79 70 73 VRB6 30.01S Aiken CLOUDY 73 72 94 SW5 30.05R Manning PTSUNNY 77 70 78 SW8 30.01S Columbia CLOUDY 78 72 81 SW7 30.00S Sumter CLOUDY 78 72 82 S8 29.99S Florence PTSUNNY 79 72 79 SW10 30.01S Myrtle Beach FAIR 80 73 79 S9 30.03S N Myrtle Beach FAIR 79 73 82 S10 30.02S $$ GAZ063-065-086>088-099>101-113>116-118-119-134>141-150-261500- ...Southeast Georgia... CITY SKY/WX TMP DP RH WIND PRES REMARKS Savannah Arpt PTSUNNY 80 70 71 S10 30.02R Hunter AAF FAIR 79 73 83 SW6 29.99 Fort Stewart FAIR 80 70 70 SW7 29.99S Statesboro CLOUDY 77 70 80 SW6 30.01S Sylvania FAIR 80 73 77 SW6 30.02S Claxton CLOUDY 82 73 75 S3 30.01S ...CSRA, Central and far Southeast Georgia... CITY SKY/WX TMP DP RH WIND PRES REMARKS Thomson CLOUDY 75 71 89 CALM 30.05S Augusta-Bush CLOUDY 76 72 87 S6 30.00S Augusta-Daniel CLOUDY 76 72 87 S3 30.01S Swainsboro CLOUDY 75 72 88 S8 30.02S Vidalia CLOUDY 79 68 69 S6 30.02R Eastman PTSUNNY 80 65 60 SE3 30.02S Hazlehurst N/A 78 69 73 S6 30.00S Alma CLOUDY 78 71 79 S5 30.00F Waycross FAIR 79 73 83 S3 30.01S Jesup FAIR 82 69 64 CALM 30.01S Baxley CLOUDY 77 77 100 S7 30.01S Brunswick PTSUNNY 81 70 69 SE6 30.02S Saint Simons FAIR 79 73 82 SE8 30.01S $$ SCZ027-028-034-036>038-045-046-048>050-GAZ119-141-261500- ...Lake and Supplemental Coastal Observations... STATION/POSITION TIME TEMP WIND PRES WAVE SWELL AIR SEA DIR/SP/G HT/PER HT/PER/DIR (UTC) (F) (DEG/KT/KT) (MB) (FT/S) (FT/S/D) Winyah Bay 1345 80 200/ 10 1017.0S Lake Murray 1320 75 190/ 8/ 10 1015.2 ACE Basin NERRS 1345 81 170/ 1 1016.0S Fort Pulaski 1400 80 79 170/ 7/ 11 1016.8 Sapelo Island 1400 80 170/ 6 1016.0 $$ ANZ835-935-AMZ111-154-330-350-352-354-370-450-454-472-261500- ...C-MAN and Buoy Observations... STATION/POSITION TIME TEMP WIND PRES WAVE SWELL AIR SEA DIR/SP/G HT/PER HT/PER/DIR (UTC) (F) (DEG/KT/KT) (MB) (FT/S) (FT/S/D) Buoy 41004 1400 76 180/ 8/ 8 1017.1 Buoy 41008 1350 77 77 150/ 10/ 12 1016.3R 2/ 9 2/110/ 9 Folly Beach CMAN 1400 78 170/ 9/ 10 1017.4R Capers Nearshore 1408 78 78 170/ 8/ 12 1017.9R Fripp Nearshore 1408 77 79 200/ 10/ 14 1016.6R STATION/POSITION TIME TEMP WIND PRES WAVE SWELL AIR SEA DIR/SP/G HT/PER HT/PER/DIR (UTC) (F) (DEG/KT/KT) (MB) (FT/S) (FT/S/D) 5E St. Marys GA 1400 77 N/A 2/10 Frying Pan Buoy 1400 78 77 200/ 8/ 10 1017.4 Buoy 41025 1410 77 78 220/ 12/ 14 1017.3 Cape Lookout NC 1400 210/ 8/ 10 1017.2F Buoy 41002 1410 79 170/ 8/ 10 1018.6 Buoy 41010 1410 78 79 110/ 14/ 17 1017.2 St Augustine FL 1400 77 78 120/ 7/ 8 1016.9R $$

USA.gov is the U.S. government's official web portal to all federal, state and local government web resources and services.